Location: Bęczków
(50.8761°N, 20.8028°E)
Time: 06:34:23
(UTC+02:00)

Envisat - Pass Details

Date: 24 March 2019
Orbit: 764 x 766 km, 98.1° (Epoch: 13 October)

Event Time Altitude Azimuth Distance (km) Brightness Sun altitude
Rises 18:23:53 0° 176° (S) 3,219 6.1 -5.2°
Reaches altitude 10° 18:26:13 10° 180° (S) 2,297 5.4 -5.6°
Maximum altitude 18:31:12 57° 259° (W) 900 3.8 -6.4°
Drops below altitude 10° 18:36:14 10° 339° (NNW) 2,315 6.0 -7.2°
Sets 18:38:36 0° 343° (NNW) 3,247 6.7 -7.5°
